Regional Weather Roundup
Issued by NWS Portland, ME

Home | Current Version | Previous Version | Text Only | Print | Product List | Glossary On
Versions: 1 2 3 4 5 6 7 8 9 10 11 12 13 14 15 16 17 18 19 20 21 22 23 24 25 26 27 28 29 30 31 32 33 34 35 36 37 38 39 40 41 42 43 44 45 46 47 48 49 50
000
ASUS41 KGYX 290005
RWRGYX
WEATHER ROUNDUP FOR MAINE AND NEW HAMPSHIRE
NATIONAL WEATHER SERVICE GRAY ME
800 PM EDT THU AUG 28 2014

MEZ002-005-006-010-012-015-018-020-021-024-026-027-029-290100-
MAINE

CITY           SKY/WX    TMP DP  RH WIND       PRES   REMARKS
PORTLAND       PTCLDY    66  47  50 NW14G21   29.89R
6HR MIN TEMP:  66; 6HR MAX TEMP:  77;

SANFORD        PTCLDY    66  45  45 NW9       29.91R
BAR HARBOR     PTCLDY    64  54  68 NW7       29.81R
WISCASSET      PTCLDY    65  50  58 VRB5      29.88R
6HR MIN TEMP:  65; 6HR MAX TEMP:  77;

ROCKLAND       PTCLDY    64  46  52 NW7       29.82R
FRYEBURG       CLOUDY    64  47  53 E3        29.93R
6HR MIN TEMP:  62; 6HR MAX TEMP:  77;

LEWISTONAUBURN CLOUDY    64  48  55 NW8       29.90R
AUGUSTA        PTCLDY    63  48  58 NW10      29.89R
6HR MIN TEMP:  63; 6HR MAX TEMP:  75;

WATERVILLE     CLEAR     63  48  59 NW8       29.84R
BANGOR         MOCLDY    65  48  54 NW13      29.84R
6HR MIN TEMP:  65; 6HR MAX TEMP:  77;

GREENVILLE       N/A     57  51  80 VRB7G18   29.87R
6HR MIN TEMP:  57; 6HR MAX TEMP:  68;

MILLINOCKET    CLOUDY    65  49  56 N14       29.86R
6HR MIN TEMP:  63; 6HR MAX TEMP:  77; 6HR PCP: TRACE;

HOULTON        CLEAR     59  51  75 N9        29.81R
6HR MIN TEMP:  59; 6HR MAX TEMP:  71; 6HR PCP: TRACE;

PRESQUE ISLE   CLOUDY    59  48  67 N14       29.84R
6HR MIN TEMP:  59; 6HR MAX TEMP:  68; 6HR PCP:  0.02;

FRENCHVILLE    CLOUDY    52  47  83 N12       29.88R
6HR MIN TEMP:  52; 6HR MAX TEMP:  61; 6HR PCP: TRACE;

CARIBOU        CLOUDY    58  48  69 N16G25    29.84R
6HR MIN TEMP:  58; 6HR MAX TEMP:  70;

$$

NHZ002-005-008-009-011-012-014-290100-
NEW HAMPSHIRE

CITY           SKY/WX    TMP DP  RH WIND       PRES   REMARKS
PORTSMOUTH     PTCLDY    66  48  51 NW8       29.90R
ROCHESTER      CLEAR     62  48  60 NW7       29.91R
6HR MIN TEMP:  62; 6HR MAX TEMP:  77;

NASHUA         CLEAR     69  49  48 NW7       29.94R
MANCHESTER     PTCLDY    69  48  47 NW7       29.92R
6HR MIN TEMP:  69; 6HR MAX TEMP:  79;

CONCORD        CLOUDY    66  48  52 NW9       29.94R
6HR MIN TEMP:  65; 6HR MAX TEMP:  78;

LACONIA        MOCLDY    64  46  52 NW9       29.93R
PLYMOUTH       FAIR      62  53  73 NW3       29.95R
BERLIN         CLOUDY    60  49  66 NW6       29.95R
6HR MIN TEMP:  60; 6HR MAX TEMP:  70;

WHITEFIELD     CLOUDY    60  50  69 CALM      29.97R
6HR MIN TEMP:  60; 6HR MAX TEMP:  71;

JAFFREY        CLEAR     61  51  70 CALM      29.97R
6HR MIN TEMP:  61; 6HR MAX TEMP:  74;

LEBANON        CLEAR     60  49  66 CALM      29.97R
6HR MIN TEMP:  60; 6HR MAX TEMP:  75;

MT WASHINGTON  FOG       37  37 100 N48G58      N/A  VSB 1/16
6HR MIN TEMP:  37; 6HR MAX TEMP:  42;

$$

VTZ005-007-008-290100-
VERMONT

CITY           SKY/WX    TMP DP  RH WIND       PRES   REMARKS
ST JOHNSBURY     N/A     62  48  60 MISG      29.96R
MONTPELIER     CLOUDY    59  49  69 N6        30.03R
BURLINGTON     MOCLDY    66  49  54 NW8       30.00R
$$

MAZ007-012-024-CTZ003-RIZ002-NYZ038-NYZ072-290100-
SOUTHERN NEW ENGLAND AND NY

CITY           SKY/WX    TMP DP  RH WIND       PRES   REMARKS
BOSTON         PTCLDY    73  44  35 NW14G24   29.91R
WORCESTER      MOCLDY    65  49  56 NW12      29.96R
NANTUCKET      CLOUDY    69  57  65 W3        29.88R
PROVIDENCE     MOCLDY    73  51  46 NW10      29.91R
HARTFORD       PTCLDY    68  54  60 NW7       29.94R
ALBANY         MOCLDY    67  52  58 W15       29.99R
NEW YORK CITY  PTCLDY    76  53  44 NW13      29.95R
$$

ANZ081-ANZ082-ANZ150-NHZ014-MEZ023>029-290100-
COASTAL MARINE OBSERVATIONS

STATION/POSITION TIME  TEMP    WIND        PRES    WAVE
                       AIR SEA DIR/SP/G            HT/PER
                 (UTC) (F)     (DEG/KT/KT) (MB)    (FT/S)
MATINICUS ROCK   2300          330/ 22/ 24 1008.7R
PORTLAND WX BUOY 2350   66 61  330/ 14/ 16 1011.7R   4/14
WELLS            2300   69 60  340/ 10/ 12 1010.5R
ISLE OF SHOALS   2300   70     320/ 22/ 24 1010.6R
JEFFREYS LEDGE   2321      68                N/A     4/13
CASHES LEDGE BUO 2350   68 67              1009.5R   6/11
$$

.............KEY..............
   WCI - WIND CHILL
   TC  - TEMPERATURE IN CELSIUS
   VSB - VISIBILITY IN MILES
   HX  - HEAT INDEX
   FAIR- INDICATES FEW OR NO CLOUDS BELOW 12,000 FT, WITH NO
         SIGNIFICANT WEATHER AND/OR OBSTRUCTIONS TO VISIBILITY.




USA.gov is the U.S. government's official web portal to all federal, state and local government web resources and services.